一网星座-0413星 (ONEWEB-0413 )

导读 | 星芒AI

ONEWEB-0413 是 OneWeb 卫星星座计划中的一颗低轨通信卫星,旨在为全球提供高速互联网服务。该卫星采用标准化设计,具备高容量和高效率的通信能力,支持偏远和农村地区的网络接入。作为 OneWeb 扩展其全球覆盖网络的一部分,ONEWEB-0413 于近期成功发射并进入预定轨道,进一步增强了其卫星群的稳定性和服务能力。该星座致力于弥合数字鸿沟,推动全球通信基础设施的发展。

基本信息
目录编号:
50490
目录名称:
ONEWEB-0413
国际标识:
2021-132X
轨道中心:
EARTH
卫星名称:
一网星座-0413星
卫星全名:
一网星座-0413星 (ONEWEB-0413 )
卫星状态:
在轨 (已飞行1450 天)
发射日期:
2021-12-27 UTC
国别 :
英国 (GB)
星等 :
--
轨道信息
数据来源 国际轨道数据 AOE轨道数据
星历时间 2025-12-15T16:04:34+0800
18小时前
查看轨道信息
2025-12-12T23:00:00+0800
3天前
查看轨道信息
半长轴 7567.889km 7567.886km
偏心率 0.0002093 0.0002389
轨道倾角 87.917° 87.918°
近地点辐角 89.725° 94.790°
升交点赤经 11.983° 12.522°
平近点角 270.412° 0.488°
近地点 1188.17km 1187.943km
远地点 1191.338km 1191.559km
周期 109.200分钟 109.200分钟
每日圈数 13.186839 13.186846
详细信息
平衡模式:
三轴稳定
覆盖范围:
全球
运营商:
一网卫星公司
运营商所在国:
英国
制造商(研发单位):
一网卫星公司
制造商所在国:
英国
使用方式:
暂无
卫星简介
OneWeb卫星网络由648颗重约125公斤的微型卫星组成,运行在1200公里的轨道上。 每颗卫星都能够提供至少每秒8千兆位的吞吐量,以使用其高吞吐量的Ku频段有效载荷为家庭和移动平台提供互联网接入。该卫星仍在工作。
2D轨道图
3D轨道图
轨道高度分析图
轨道倾角分析图
轨道综合分析图
查看轨道综合分析图